EN

Hourly Weather Bedfordshire

Today, 25 January, Monday

Time Temperature Precipitation Wind Pressure Humidity
00:00 -3°C° 0 mm 4 mps 745 mmHg 90%
01:00 -2°C° 0 mm 3 mps 746 mmHg 91%
02:00 -4°C° 0 mm 3 mps 747 mmHg 91%
03:00 -4°C° 0 mm 3 mps 747 mmHg 92%
04:00 -4°C° 0 mm 3 mps 748 mmHg 90%
05:00 -5°C° 0 mm 3 mps 749 mmHg 88%
06:00 -5°C° 0 mm 3 mps 749 mmHg 87%
07:00 -4°C° 0 mm 4 mps 750 mmHg 88%
08:00 -4°C° 0 mm 4 mps 750 mmHg 89%
09:00 -3°C° 0 mm 4 mps 751 mmHg 90%
10:00 -2°C° 0 mm 5 mps 751 mmHg 89%
11:00 -1°C° 0 mm 5 mps 751 mmHg 88%
12:00 0°C° 0 mm 5 mps 752 mmHg 87%
13:00 +1°C° 0 mm 5 mps 752 mmHg 87%
14:00 +1°C° 0 mm 5 mps 752 mmHg 87%
15:00 +1°C° 0 mm 5 mps 753 mmHg 87%
16:00 0°C° 0 mm 5 mps 753 mmHg 88%
17:00 -1°C° 0 mm 5 mps 754 mmHg 89%
18:00 -1°C° 0 mm 5 mps 754 mmHg 91%
19:00 -2°C° 0 mm 5 mps 755 mmHg 90%
20:00 -2°C° 0 mm 5 mps 755 mmHg 90%
21:00 -2°C° 0 mm 4 mps 756 mmHg 90%
22:00 -2°C° 0 mm 4 mps 756 mmHg 90%
23:00 -3°C° 0 mm 4 mps 756 mmHg 90%

Tomorrow, 26 January, Tuesday

Time Temperature Precipitation Wind Pressure Humidity
00:00 -3°C° 0 mm 4 mps 757 mmHg 90%
01:00 -3°C° 0 mm 4 mps 757 mmHg 90%
02:00 -3°C° 0 mm 4 mps 757 mmHg 90%
03:00 -2°C° 0 mm 3 mps 757 mmHg 90%
04:00 -2°C° 0 mm 3 mps 758 mmHg 90%
05:00 -2°C° 0 mm 3 mps 758 mmHg 90%
06:00 -2°C° 0 mm 3 mps 758 mmHg 91%
07:00 -1°C° 0 mm 3 mps 758 mmHg 90%
08:00 -1°C° 0 mm 3 mps 758 mmHg 89%
09:00 0°C° 0 mm 3 mps 758 mmHg 88%
10:00 +1°C° 0 mm 3 mps 759 mmHg 86%
11:00 +2°C° 0 mm 3 mps 759 mmHg 84%
12:00 +3°C° 0 mm 4 mps 759 mmHg 82%
13:00 +3°C° 0 mm 4 mps 758 mmHg 84%
14:00 +3°C° 0 mm 4 mps 758 mmHg 86%
15:00 +3°C° 0 mm 4 mps 757 mmHg 89%
16:00 +3°C° 0.2 mm 4 mps 757 mmHg 91%
17:00 +2°C° 0.2 mm 5 mps 756 mmHg 93%
18:00 +1°C° 0.2 mm 6 mps 756 mmHg 95%
19:00 +2°C° 0.4 mm 5 mps 756 mmHg 95%
20:00 +2°C° 0.4 mm 5 mps 755 mmHg 95%
21:00 +2°C° 0.4 mm 5 mps 755 mmHg 95%
22:00 +3°C° 0.1 mm 5 mps 755 mmHg 96%
23:00 +3°C° 0.1 mm 5 mps 755 mmHg 96%

Day after tomorrow, 27 January, Wednesday

Time Temperature Precipitation Wind Pressure Humidity
00:00 +4°C° 0.1 mm 4 mps 755 mmHg 96%
01:00 +4°C° 0 mm 4 mps 754 mmHg 97%
02:00 +4°C° 0 mm 3 mps 754 mmHg 97%
03:00 +5°C° 0 mm 2 mps 754 mmHg 98%
04:00 +5°C° 0.2 mm 2 mps 754 mmHg 98%
05:00 +4°C° 0.2 mm 2 mps 754 mmHg 98%
06:00 +4°C° 0.2 mm 2 mps 754 mmHg 97%
07:00 +5°C° 0.7 mm 2 mps 754 mmHg 97%
08:00 +5°C° 0.7 mm 2 mps 755 mmHg 98%
09:00 +5°C° 0.7 mm 2 mps 755 mmHg 98%
10:00 +5°C° 0.2 mm 2 mps 755 mmHg 98%
11:00 +5°C° 0.2 mm 2 mps 755 mmHg 98%
12:00 +6°C° 0.2 mm 2 mps 755 mmHg 98%
13:00 +6°C° 0.1 mm 2 mps 755 mmHg 98%
14:00 +6°C° 0.1 mm 2 mps 755 mmHg 98%
15:00 +7°C° 0.1 mm 2 mps 754 mmHg 98%
16:00 +7°C° 0 mm 2 mps 754 mmHg 97%
17:00 +7°C° 0 mm 2 mps 754 mmHg 97%
18:00 +7°C° 0 mm 3 mps 754 mmHg 97%
19:00 +7°C° 0.3 mm 3 mps 753 mmHg 97%
20:00 +7°C° 0.3 mm 3 mps 752 mmHg 98%
21:00 +7°C° 0.3 mm 3 mps 751 mmHg 98%
22:00 +7°C° 0.5 mm 4 mps 751 mmHg 98%
23:00 +7°C° 0.5 mm 4 mps 750 mmHg 98%

28 January, Thursday

Time Temperature Precipitation Wind Pressure Humidity
00:00 +8°C° 0.5 mm 5 mps 749 mmHg 97%
01:00 +8°C° 0.2 mm 6 mps 748 mmHg 96%
02:00 +8°C° 0.2 mm 6 mps 747 mmHg 95%
03:00 +9°C° 0.2 mm 7 mps 747 mmHg 94%
04:00 +9°C° 0.1 mm 7 mps 746 mmHg 93%
05:00 +9°C° 0.1 mm 7 mps 746 mmHg 93%
06:00 +9°C° 0.1 mm 7 mps 746 mmHg 92%
07:00 +9°C° 0 mm 7 mps 746 mmHg 90%
08:00 +9°C° 0 mm 8 mps 747 mmHg 89%
09:00 +9°C° 0 mm 8 mps 747 mmHg 87%
10:00 +9°C° 0 mm 8 mps 748 mmHg 85%
11:00 +9°C° 0 mm 8 mps 748 mmHg 83%
12:00 +10°C° 0 mm 7 mps 749 mmHg 81%
13:00 +10°C° 0 mm 7 mps 749 mmHg 82%
14:00 +10°C° 0 mm 8 mps 748 mmHg 83%
15:00 +10°C° 0 mm 8 mps 748 mmHg 84%
16:00 +9°C° 0 mm 7 mps 747 mmHg 85%
17:00 +9°C° 0 mm 7 mps 747 mmHg 86%
18:00 +9°C° 0 mm 7 mps 747 mmHg 88%
19:00 +9°C° 0.5 mm 7 mps 745 mmHg 88%
20:00 +9°C° 0.5 mm 8 mps 744 mmHg 89%
21:00 +8°C° 0.5 mm 9 mps 743 mmHg 89%
22:00 +8°C° 0.8 mm 9 mps 743 mmHg 88%
23:00 +8°C° 0.8 mm 10 mps 742 mmHg 86%

29 January, Friday

Time Temperature Precipitation Wind Pressure Humidity
00:00 +8°C° 0.8 mm 10 mps 742 mmHg 84%
01:00 +7°C° 0 mm 9 mps 742 mmHg 82%
02:00 +6°C° 0 mm 9 mps 743 mmHg 81%
03:00 +5°C° 0 mm 8 mps 744 mmHg 79%
04:00 +5°C° 0 mm 8 mps 744 mmHg 81%
05:00 +4°C° 0 mm 7 mps 745 mmHg 83%
06:00 +3°C° 0 mm 6 mps 745 mmHg 85%
07:00 +4°C° 0 mm 6 mps 746 mmHg 86%
08:00 +4°C° 0 mm 6 mps 746 mmHg 87%
09:00 +4°C° 0 mm 6 mps 746 mmHg 88%
10:00 +5°C° 0 mm 6 mps 746 mmHg 86%
11:00 +7°C° 0 mm 6 mps 746 mmHg 85%
12:00 +8°C° 0 mm 6 mps 745 mmHg 83%
13:00 +8°C° 0 mm 5 mps 745 mmHg 83%
14:00 +8°C° 0 mm 5 mps 744 mmHg 83%
15:00 +8°C° 0 mm 4 mps 744 mmHg 83%
16:00 +8°C° 0 mm 3 mps 743 mmHg 86%
17:00 +7°C° 0 mm 3 mps 743 mmHg 89%
18:00 +6°C° 0 mm 2 mps 743 mmHg 92%
19:00 +6°C° 0.1 mm 2 mps 743 mmHg 92%
20:00 +6°C° 0.1 mm 2 mps 743 mmHg 93%
21:00 +5°C° 0.1 mm 2 mps 744 mmHg 94%
22:00 +4°C° 0.2 mm 3 mps 744 mmHg 94%
23:00 +4°C° 0.2 mm 4 mps 745 mmHg 95%

30 January, Saturday

Time Temperature Precipitation Wind Pressure Humidity
00:00 +3°C° 0.2 mm 4 mps 746 mmHg 95%
01:00 +2°C° 0.6 mm 5 mps 747 mmHg 93%
02:00 +1°C° 0.6 mm 5 mps 748 mmHg 92%
03:00 -1°C° 0.6 mm 6 mps 748 mmHg 90%
04:00 -1°C° 0 mm 6 mps 750 mmHg 88%
05:00 0°C° 0 mm 5 mps 751 mmHg 86%
06:00 -1°C° 0 mm 5 mps 752 mmHg 84%
07:00 -1°C° 0 mm 4 mps 753 mmHg 84%
08:00 -1°C° 0 mm 4 mps 754 mmHg 85%
09:00 0°C° 0 mm 3 mps 755 mmHg 85%
10:00 +1°C° 0 mm 3 mps 756 mmHg 81%
11:00 +3°C° 0 mm 3 mps 756 mmHg 77%
12:00 +4°C° 0 mm 3 mps 757 mmHg 73%
13:00 +4°C° 0 mm 3 mps 757 mmHg 74%
14:00 +5°C° 0 mm 2 mps 757 mmHg 74%
15:00 +5°C° 0 mm 2 mps 757 mmHg 75%
16:00 +4°C° 0 mm 2 mps 758 mmHg 79%
17:00 +4°C° 0 mm 1 mps 758 mmHg 83%
18:00 +3°C° 0 mm 1 mps 759 mmHg 87%
19:00 +2°C° 0 mm 1 mps 759 mmHg 88%
20:00 +2°C° 0 mm 1 mps 759 mmHg 88%
21:00 +2°C° 0 mm 1 mps 759 mmHg 88%
22:00 +2°C° 0 mm 1 mps 758 mmHg 89%
23:00 +1°C° 0 mm 2 mps 758 mmHg 89%
Show more